Regional Weather Roundup
Issued by NWS

Home | Current Version | Previous Version | Text Only | Print | Product List | Glossary Off
Versions: 1 2 3 4 5 6 7 8 9 10 11 12 13 14 15 16 17 18 19 20 21 22 23 24 25 26 27 28 29 30 31 32 33 34 35 36 37 38 39 40 41 42 43 44 45 46 47 48 49 50

000
ASUS43 KLMK 261202
RWRKY
KENTUCKY REGIONAL WEATHER ROUNDUP
NATIONAL WEATHER SERVICE LOUISVILLE KY
800 AM EDT MON SEP 26 2016

NOTE "FAIR" INDICATES FEW OR NO CLOUDS BELOW 12,000 FEET
WITH NO SIGNIFICANT WEATHER AND/OR OBSTRUCTIONS TO VISIBILITY.

KYZ001>023-026-027-061>063-070>075-261300-
WESTERN AND SOUTH CENTRAL KENTUCKY

CITY           SKY/WX    TMP DP  RH WIND       PRES   REMARKS
PADUCAH        CLOUDY    63  59  87 N7        30.11R
HENDERSON      CLOUDY    61  55  82 NW5       30.10S
OWENSBORO      LGT RAIN N/A N/A N/A NW9G18    30.12R
HOPKINSVILLE   CLOUDY    67  58  75 N13G22    30.07R
BOWLING GREEN  PTCLDY    71  67  87 VRB6      30.03R
GLASGOW        CLOUDY   N/A N/A N/A CALM      30.02R HAZE
$$

KYZ024-025-028>034-038-045-046-053-261300-
NORTH CENTRAL KENTUCKY

CITY           SKY/WX    TMP DP  RH WIND       PRES   REMARKS
LOUISVILLE/SDF CLOUDY    71  65  81 NW14      30.01R
LOUISVILLE/LOU CLOUDY    72  66  81 NW12      30.01R
FORT KNOX      CLOUDY    69  66  88 N14       30.01R
$$

KYZ035>037-039>044-047>052-055>060-089>105-261300-
NORTHEAST KENTUCKY

CITY           SKY/WX    TMP DP  RH WIND       PRES   REMARKS
LEXINGTON      PTCLDY    67  63  87 SW3       29.99S
COVINGTON      CLOUDY    70  67  90 NW13      29.98R
FRANKFORT      PTCLDY    65  61  87 NW5       29.99R
$$

KYZ054-064>069-076>088-106>120-261300-
SOUTHEAST KENTUCKY

CITY           SKY/WX    TMP DP  RH WIND       PRES   REMARKS
JACKSON        PTCLDY    68  64  87 CALM      30.02S
LONDON         CLEAR     65  62  90 CALM      30.03R FOG
SOMERSET       CLEAR     64  64 100 CALM      30.03R
MIDDLESBORO    PTCLDY    64  63  99 NW3       30.06R
MONTICELLO     SUNNY     63  61  93 N8        30.04R
$$




USA.gov is the U.S. government's official web portal to all federal, state and local government web resources and services.